Miscellaneous Local Product
Issued by NWS North Platte, NE

Home | Current Version | Previous Version | Graphics & Text | Print | Product List | Glossary On
Versions: 1 2 3 4 5 6 7 8 9 10 11 12 13 14 15 16 17 18 19 20 21 22 23 24 25 26 27 28 29 30 31 32 33 34 35 36 37 38 39 40 41 42 43 44 45 46 47 48 49 50
000
AXUS43 KLBF 290910
MISLBF


WESTERN AND NORTH CENTRAL NEBRASKA HOURLY WEATHER ROUNDUP
NATIONAL WEATHER SERVICE NORTH PLATTE NE
400 AM CDT SUN MAY 29 2016

NOTE: "FAIR" INDICATES FEW OR NO CLOUDS BELOW 12,000 FEET WITH NO
SIGNIFICANT WEATHER AND/OR OBSTRUCTIONS TO VISIBILITY.

NOTE: STATIONS NOT REPORTING VARIABLES SUCH AS SKY/WEATHER OR
PRESSURE ARE PROVIDED BY RAWS AND APRS NETWORKS AND ARE NOT UNDER
NATIONAL WEATHER SERVICE QUALITY CONTROL.

...OBSERVATIONS IN AND NEAR THE EASTERN PANHANDLE OF NEBRASKA...

CITY           SKY/WX    TMP DP  RH WIND       PRES   REMARKS
PINE RIDGE     CLEAR     38  36  92 CALM      30.07S
CHADRON        PTCLDY    39  38  96 W6        30.07S WCI  35
ALLIANCE       CLEAR     39  39 100 W5        30.08S
SIDNEY         CLEAR     43  41  93 W6        30.10F
CRESCENT LAKE    N/A     49  47  94 CALM        N/A
BIG SPRINGS      N/A     50  47  90 CALM        N/A
$$

...OBSERVATIONS IN NORTHERN NEBRASKA AND FAR SOUTHERN SOUTH DAKOTA...

CITY           SKY/WX    TMP DP  RH WIND       PRES   REMARKS
WINNER         FAIR      57  51  80 SW7       30.00S
VALENTINE      CLEAR     50  47  89 SW6       30.04S
THEDFORD       CLEAR     50  49  95 W6        30.07R
AINSWORTH      CLEAR     55  54  96 W5        30.04S
O`NEILL        CLOUDY    60  57  91 SW5       30.02R
ORD            PTCLDY    54  53  97 SW5       30.01R
BROKEN BOW     CLEAR     53  51  93 CALM      30.03R
BUTTE            N/A     58  56  92 SW3         N/A
CHAMBERS         N/A     59  57  92 CALM        N/A
EWING            N/A     57  56  97 CALM        N/A
$$

...OBSERVATIONS IN SOUTHWEST NEBRASKA AND FAR NORTHEAST COLORADO...

CITY           SKY/WX    TMP DP  RH WIND       PRES   REMARKS
WRAY           FAIR      55  46  71 CALM      30.10S
IMPERIAL       CLEAR     52  49  89 W7        30.09R
OGALLALA       CLEAR     48  46  93 CALM      30.08R
NORTH PLATTE   CLEAR     48  47  96 NW5       30.07R
MCCOOK         CLOUDY    58  50  75 S5        30.05R
LEXINGTON      CLOUDY    54  51  90 N5        30.05R
PAXTON           N/A     53  49  87 CALM        N/A
STAPLETON        N/A     50  48  93 CALM        N/A
GOTHENBURG       N/A     58  49  73 NW3         N/A
CALLAWAY         N/A     54  50  87 NW8         N/A
$$

...OBSERVATIONS IN CENTRAL LINCOLN COUNTY AREA...

CITY           SKY/WX    TMP DP  RH WIND       PRES   REMARKS
N.P. AIRPORT   CLEAR     48  47  96 NW5       30.07R
N.P. DOWNTOWN    N/A     52  51  95 CALM        N/A
N.P. SOUTHEAST   N/A     53  51  92 CALM        N/A
N.P. HILLCREST   N/A     53  49  87 CALM        N/A
$$

...SOME OBSERVATIONS FROM AROUND THE REGION...

CITY           SKY/WX    TMP DP  RH WIND       PRES   REMARKS
DENVER         CLEAR     49  41  74 SW10      30.14F
LARAMIE        CLEAR     40  35  83 S12       30.20S WCI  33
CHEYENNE       CLOUDY    46  37  71 W7        30.16S
SCOTTSBLUFF    CLEAR     47  43  86 E8        30.08S
RAPID CITY     CLEAR     48  44  86 NW7       30.06R
BISMARCK       CLEAR     51  50  96 W3        29.98R
PIERRE         CLEAR     53  51  93 SW3       29.97S
SIOUX FALLS    MOCLDY    56  55  97 W3        29.96R
OMAHA          CLEAR     56  53  90 SE7       30.00R
GRAND ISLAND   CLOUDY    58  55  90 S8        30.02S
KANSAS CITY    CLEAR     60  57  89 S7        30.03R
WICHITA        CLEAR     64  58  80 SE5       30.05S
OKLAHOMA CITY  CLOUDY    71  70  96 S8        30.04R
DALLAS         CLOUDY    77  72  84 CALM      30.04R
AMARILLO       CLEAR     58  51  78 SE13      30.07S
DODGE CITY     CLOUDY    58  53  84 SE8       30.09R
HAYS           CLEAR     55  46  71 SW7       30.07R
GOODLAND       CLOUDY    52  47  83 S6        30.11R
$$




USA.gov is the U.S. government's official web portal to all federal, state and local government web resources and services.